Wind_Speed
48 48 48 47 45 44 43 41 40 40 41 41 42 42 42 42 42 42 42 42 43 43 42 42 41 41 40 39 39 38 38 39 39 40 40 41 41 41 42 43 43 44
49 48 46 44 43 41 40 40 40 40 41 42 42 42 42 42 42 42 43 43 44 43 42 41 40 40 40 39 39 39 39 39 39 40 40 40 40 40 41 41 41 42
49 47 44 41 40 40 39 40 40 41 42 42 42 42 42 42 43 44 44 44 44 43 42 41 40 40 40 40 40 40 40 40 40 40 41 41 40 40 40 41 41 41
47 44 41 39 39 40 40 40 41 42 42 41 41 41 42 43 44 45 45 44 43 42 42 41 41 40 40 40 40 40 40 40 40 41 41 41 41 41 41 41 41 40
44 41 39 38 39 40 40 41 41 42 41 41 41 42 43 44 45 45 44 43 43 42 41 41 41 40 41 41 40 40 40 40 40 40 41 41 41 41 41 41 40 39
42 40 38 38 40 41 41 41 41 42 42 42 43 43 44 44 44 44 43 42 42 42 41 41 41 41 40 41 40 40 40 40 40 40 40 41 41 40 40 39 39 38
42 39 38 39 40 41 41 42 42 42 42 43 44 44 44 44 44 43 42 41 41 41 41 41 41 41 40 40 40 40 40 40 40 40 40 39 39 39 38 38 37 36
40 39 38 39 40 41 42 42 42 42 43 44 44 44 44 43 43 42 41 41 40 40 41 41 41 41 41 40 40 41 41 41 40 40 39 38 37 37 36 36 36 35
40 39 39 40 41 41 42 42 43 43 44 44 44 43 43 42 42 41 41 41 40 41 41 41 42 41 41 41 41 41 41 41 40 40 39 37 36 35 35 34 34 34
39 40 41 41 42 42 42 43 43 44 44 44 43 42 42 41 41 41 40 40 40 40 41 41 42 42 42 42 42 42 41 41 40 39 38 36 35 34 33 33 32 33
40 41 42 42 42 43 44 44 44 45 44 43 42 41 41 41 40 40 40 40 40 40 40 40 41 41 42 43 43 42 42 40 40 39 37 35 34 33 33 32 32 32
41 42 42 43 43 44 45 45 45 44 43 41 41 40 40 40 40 40 40 40 40 40 39 39 39 40 41 42 42 42 41 40 38 37 36 35 33 33 33 33 32 32
42 42 43 43 44 45 45 45 44 43 41 41 40 40 40 40 40 40 40 40 40 40 39 38 37 37 38 40 41 41 40 39 37 36 35 34 33 33 33 33 33 32
43 43 43 44 45 45 45 45 44 42 41 41 40 40 40 40 40 40 39 39 40 40 39 39 37 36 36 37 38 39 38 37 35 34 34 34 34 34 34 34 33 33
44 44 44 45 45 45 45 44 43 42 41 41 40 40 40 40 40 39 39 39 39 39 39 38 37 36 35 35 35 36 36 36 34 34 33 34 34 34 34 34 34 33
45 45 45 45 46 46 45 44 43 42 42 41 40 39 39 39 39 38 38 38 38 38 38 38 37 35 34 32 32 33 34 34 34 33 33 33 34 34 34 34 34 34
45 45 45 46 46 46 45 44 43 42 42 41 40 39 38 38 37 37 37 37 37 37 36 36 35 33 32 31 30 31 33 33 33 33 32 33 33 34 34 34 35 35
45 45 45 46 46 45 44 43 43 42 41 40 39 39 38 38 37 37 36 36 35 34 34 33 32 31 31 29 29 29 31 32 32 32 32 33 33 34 35 35 36 37
45 45 46 46 45 44 44 43 43 42 41 39 39 39 38 38 38 37 36 35 34 33 32 32 31 30 30 29 29 29 30 32 32 33 33 33 34 34 35 35 36 37
46 45 46 45 44 44 43 43 42 41 39 39 38 38 38 38 37 36 35 34 33 31 31 31 30 30 30 30 30 30 31 32 32 33 33 34 34 34 35 35 36 36
46 45 45 44 43 43 43 42 41 39 38 38 37 38 38 37 36 35 33 33 32 31 30 30 30 30 31 31 31 32 32 32 33 33 34 34 34 34 35 35 35 35
46 44 43 43 42 42 41 41 39 38 37 37 37 36 36 35 34 33 32 31 30 29 29 29 30 31 32 33 33 33 33 33 33 33 33 34 34 34 35 34 34 34
45 43 42 41 41 41 40 39 38 37 36 36 36 35 34 33 32 31 30 29 28 28 29 30 31 32 33 34 34 34 34 34 33 33 33 33 34 34 34 34 33 33
43 41 40 40 39 39 38 37 36 35 35 35 34 33 32 31 30 29 28 27 28 28 30 31 32 33 34 34 34 34 34 33 32 32 32 33 33 34 33 33 33 33
41 39 39 39 38 37 37 36 34 34 34 34 33 31 30 29 28 27 27 27 28 29 31 32 34 34 34 34 34 33 33 32 32 32 32 32 33 33 33 33 33 34
39 38 37 37 36 36 35 34 33 33 33 32 31 30 29 28 27 26 26 28 29 31 33 34 35 35 35 34 33 32 32 32 32 32 32 32 33 32 33 33 33 34
Wind_Direction
315 313 311 310 309 309 309 310 312 313 314 314 313 312 311 311 310 310 310 310 310 310 309 308 306 303 301 299 298 297 295 294 292 291 289 287 285 284 281 280 278 276
316 313 312 311 310 310 311 313 314 315 315 314 313 312 312 312 312 312 312 312 312 311 310 308 307 305 304 303 303 302 300 299 298 296 294 293 291 290 288 286 284 282
316 313 313 313 312 313 315 316 316 316 315 314 313 313 314 314 314 314 314 313 312 311 311 310 309 308 308 307 306 306 305 304 303 302 300 299 298 297 295 292 290 288
315 314 315 315 316 317 318 318 317 316 315 315 314 315 315 315 314 314 314 313 313 312 312 312 311 311 311 310 309 309 309 308 307 306 305 304 303 301 299 296 293 291
315 315 317 318 319 319 319 319 318 317 316 316 316 316 316 315 315 314 314 313 313 313 313 314 314 314 313 312 311 312 312 311 310 308 307 306 305 304 301 299 296 294
314 315 318 321 321 321 320 320 319 318 317 317 317 317 316 316 315 315 314 314 314 314 315 315 315 314 313 313 314 314 313 312 311 309 308 308 307 305 303 301 299 297
315 316 321 323 323 323 322 321 319 319 319 318 318 318 317 316 316 315 315 315 316 316 317 316 316 315 315 316 316 316 314 313 311 310 310 310 308 306 305 303 302 300
317 320 323 325 325 324 322 320 320 320 320 319 319 319 318 317 316 316 316 317 318 318 318 318 317 318 319 319 318 316 315 313 313 313 312 311 309 308 306 305 305 305
321 323 326 326 326 324 322 321 322 322 321 321 320 320 319 317 317 317 318 320 320 320 320 320 320 321 321 320 318 316 315 315 314 314 314 312 311 309 308 308 308 308
325 327 328 327 326 324 323 323 324 324 323 322 321 320 319 318 319 320 321 322 322 322 322 323 323 323 322 320 318 317 316 316 316 315 315 314 313 312 311 311 311 310
329 329 328 327 326 326 325 325 326 325 324 323 322 321 320 321 322 323 323 323 323 323 324 325 324 323 321 320 318 317 317 318 317 316 316 316 315 315 314 314 313 312
330 329 328 327 327 327 327 327 327 326 325 324 323 322 323 324 324 325 325 325 324 324 325 325 324 322 320 319 318 317 317 318 318 318 318 318 318 318 317 316 315 314
330 329 328 328 328 328 328 328 327 327 326 325 325 325 325 326 326 326 326 325 324 324 324 324 323 321 319 318 317 317 317 318 318 319 320 321 321 320 319 318 317 317
330 329 329 329 328 328 328 328 328 328 328 327 327 327 327 327 327 327 326 325 324 324 323 323 322 321 320 319 318 317 317 319 321 322 323 322 322 321 320 319 319 319
330 329 329 329 328 328 328 328 329 329 329 329 329 329 329 328 327 327 326 325 324 323 323 322 322 322 322 322 320 319 319 321 323 325 325 324 323 322 321 321 321 323
329 329 329 329 328 328 329 330 330 330 331 330 330 330 329 328 327 326 325 325 324 324 323 323 324 325 325 325 323 322 322 323 325 327 326 325 324 323 323 324 324 325
329 329 329 328 328 329 330 330 331 331 331 331 331 330 329 328 327 325 325 325 325 325 324 325 326 327 327 327 326 325 324 326 327 328 328 327 326 326 326 326 326 327
330 329 328 328 328 329 330 331 331 331 331 331 330 330 328 327 327 326 327 327 327 327 326 327 327 328 328 329 329 329 329 329 329 330 330 329 328 328 328 327 327 328
330 329 328 328 329 330 331 331 331 331 331 330 330 329 328 328 328 329 329 329 329 330 329 328 329 330 331 333 334 335 333 332 331 331 331 331 330 329 329 328 328 328
329 328 327 328 329 331 331 331 331 331 330 330 330 329 329 329 330 331 331 330 331 332 331 331 333 335 336 337 339 339 337 334 333 333 332 332 331 330 329 328 328 329
328 328 327 328 330 331 331 330 330 330 330 330 330 329 329 331 331 332 332 332 333 334 335 336 337 339 340 341 341 340 339 337 335 334 334 332 331 330 330 330 331 332
328 328 328 329 330 330 330 330 329 329 330 330 330 330 331 331 332 332 333 334 335 337 338 340 341 342 342 342 342 341 339 338 336 335 334 333 332 331 331 332 334 336
327 327 328 329 330 330 329 329 329 329 330 330 330 330 331 332 332 333 334 335 337 340 341 342 343 344 343 342 341 340 339 338 337 336 335 334 333 333 334 335 337 339
327 328 329 329 329 329 328 328 328 329 330 330 330 331 331 332 333 334 335 338 341 342 343 344 345 345 343 342 341 340 340 339 338 338 337 335 335 336 337 339 341 343
327 328 329 329 328 328 327 327 329 330 330 330 331 331 332 333 334 335 338 342 343 344 345 346 346 345 345 344 343 342 342 341 341 341 340 339 340 340 341 343 345 348
327 328 328 328 328 327 326 328 329 330 330 330 330 332 332 333 335 338 342 344 346 347 347 347 346 346 347 347 347 346 345 345 346 346 346 346 346 345 346 349 352 354
Height
10847 10844 10841 10838 10834 10831 10828 10825 10821 10817 10814 10811 10808 10804 10801 10797 10794 10791 10788 10785 10782 10779 10777 10774 10772 10769 10767 10764 10762 10760 10758 10755 10753 10751 10748 10747 10745 10743 10742 10740 10738 10736
10844 10840 10837 10834 10830 10826 10823 10820 10816 10813 10809 10806 10803 10799 10795 10791 10788 10785 10782 10779 10776 10773 10771 10768 10766 10763 10760 10757 10755 10753 10751 10748 10746 10743 10741 10739 10737 10735 10733 10731 10729 10727
10840 10836 10833 10829 10825 10822 10819 10815 10811 10808 10805 10801 10797 10794 10789 10785 10782 10779 10776 10773 10770 10767 10765 10762 10760 10757 10754 10751 10748 10746 10743 10741 10738 10735 10732 10730 10728 10726 10724 10722 10720 10719
10837 10833 10829 10825 10821 10817 10814 10810 10807 10803 10800 10796 10792 10788 10784 10781 10777 10773 10770 10767 10764 10762 10759 10756 10753 10750 10747 10744 10742 10739 10737 10734 10731 10728 10725 10722 10720 10718 10715 10713 10712 10711
10834 10830 10826 10821 10817 10813 10809 10806 10802 10799 10795 10791 10787 10783 10779 10776 10772 10769 10765 10762 10759 10756 10753 10750 10747 10744 10742 10739 10736 10733 10731 10728 10725 10722 10719 10716 10714 10711 10708 10706 10704 10703
10830 10826 10822 10818 10813 10809 10805 10801 10798 10794 10790 10786 10782 10778 10774 10771 10767 10764 10761 10758 10754 10751 10748 10745 10742 10739 10737 10734 10731 10728 10725 10722 10719 10716 10714 10711 10707 10704 10701 10699 10697 10696
10826 10822 10818 10814 10810 10805 10801 10797 10793 10790 10785 10781 10777 10773 10769 10765 10762 10759 10756 10753 10749 10746 10742 10739 10737 10734 10731 10728 10725 10722 10719 10717 10714 10711 10708 10705 10702 10698 10695 10693 10691 10689
10822 10818 10814 10810 10806 10802 10797 10793 10789 10785 10781 10776 10772 10768 10764 10760 10757 10754 10751 10748 10744 10741 10737 10734 10731 10728 10725 10722 10719 10716 10714 10711 10708 10705 10702 10700 10697 10693 10690 10687 10685 10683
10817 10813 10809 10805 10801 10798 10794 10790 10785 10781 10776 10771 10767 10763 10759 10756 10753 10750 10746 10742 10739 10736 10732 10729 10725 10722 10719 10716 10714 10711 10708 10705 10702 10699 10696 10694 10691 10688 10685 10683 10680 10677
10812 10808 10804 10800 10797 10793 10789 10785 10781 10776 10771 10767 10763 10759 10755 10752 10748 10745 10741 10738 10734 10731 10728 10724 10720 10716 10713 10711 10708 10705 10703 10700 10697 10694 10691 10689 10686 10683 10680 10678 10676 10673
10808 10803 10799 10796 10792 10789 10784 10780 10776 10771 10767 10763 10759 10755 10752 10748 10744 10740 10737 10733 10730 10727 10724 10721 10717 10713 10709 10706 10702 10699 10697 10695 10692 10689 10686 10684 10681 10678 10675 10673 10671 10669
10804 10800 10796 10792 10788 10784 10780 10775 10772 10768 10763 10759 10755 10751 10747 10743 10739 10736 10732 10729 10726 10723 10721 10718 10715 10711 10706 10702 10698 10694 10692 10690 10687 10684 10681 10679 10676 10673 10671 10668 10667 10664
10800 10796 10792 10788 10784 10780 10776 10772 10768 10764 10760 10756 10752 10747 10743 10739 10735 10732 10728 10725 10722 10720 10717 10715 10713 10709 10705 10699 10695 10690 10688 10686 10684 10680 10677 10674 10672 10669 10666 10664 10662 10659
10796 10792 10788 10784 10780 10776 10772 10768 10764 10760 10756 10752 10747 10743 10739 10735 10731 10728 10725 10722 10719 10716 10713 10711 10709 10706 10702 10697 10692 10687 10684 10682 10680 10677 10673 10670 10668 10665 10662 10660 10657 10655
10792 10788 10783 10779 10776 10772 10769 10764 10760 10756 10752 10748 10743 10739 10736 10732 10728 10725 10722 10719 10716 10712 10710 10707 10704 10702 10699 10695 10690 10685 10681 10678 10676 10673 10670 10667 10664 10661 10658 10655 10652 10650
10789 10784 10779 10775 10771 10768 10764 10760 10755 10751 10747 10744 10740 10736 10733 10729 10726 10723 10720 10717 10713 10709 10706 10703 10700 10697 10695 10691 10687 10682 10678 10675 10673 10670 10667 10664 10661 10658 10655 10651 10648 10645
10785 10780 10776 10772 10768 10763 10759 10755 10751 10747 10743 10739 10736 10733 10730 10727 10724 10721 10718 10715 10711 10707 10703 10700 10697 10694 10691 10688 10685 10680 10676 10672 10670 10667 10664 10661 10658 10654 10651 10647 10644 10641
10780 10776 10772 10768 10764 10759 10755 10751 10747 10743 10739 10736 10733 10730 10727 10725 10722 10719 10715 10712 10708 10705 10701 10697 10694 10691 10688 10686 10683 10679 10674 10670 10667 10664 10662 10658 10655 10651 10647 10644 10640 10636
10776 10772 10767 10763 10759 10755 10751 10746 10742 10739 10736 10733 10729 10726 10724 10721 10718 10715 10711 10708 10705 10702 10698 10695 10692 10689 10686 10683 10680 10676 10672 10668 10665 10662 10659 10655 10651 10648 10644 10640 10637 10633
10771 10767 10763 10758 10754 10750 10746 10742 10739 10736 10732 10730 10727 10723 10720 10717 10714 10711 10707 10704 10702 10699 10695 10692 10688 10686 10682 10679 10676 10673 10669 10666 10662 10659 10656 10652 10648 10645 10641 10638 10634 10630
10766 10763 10758 10754 10750 10746 10742 10739 10736 10733 10730 10727 10724 10721 10717 10714 10711 10707 10704 10701 10698 10695 10692 10689 10686 10682 10679 10676 10673 10670 10667 10663 10660 10656 10652 10649 10645 10642 10638 10635 10631 10627
10762 10758 10754 10750 10746 10743 10739 10736 10733 10730 10727 10724 10721 10718 10715 10712 10708 10705 10702 10699 10696 10693 10690 10687 10683 10680 10677 10673 10670 10667 10664 10661 10657 10653 10650 10646 10642 10638 10635 10631 10628 10624
10757 10754 10750 10746 10743 10740 10736 10734 10731 10727 10724 10722 10719 10716 10713 10710 10707 10704 10701 10698 10695 10691 10688 10685 10681 10678 10674 10671 10668 10665 10661 10658 10654 10651 10647 10643 10639 10635 10632 10628 10625 10622
10754 10750 10746 10743 10740 10737 10734 10731 10728 10725 10722 10719 10716 10713 10710 10708 10705 10702 10699 10696 10693 10689 10686 10683 10679 10676 10672 10669 10665 10662 10658 10655 10651 10648 10644 10640 10636 10632 10629 10625 10622 10619
10750 10747 10743 10740 10737 10734 10731 10728 10725 10722 10719 10717 10714 10711 10708 10706 10703 10700 10697 10694 10691 10687 10684 10680 10677 10674 10670 10666 10663 10659 10656 10652 10649 10645 10641 10637 10633 10629 10626 10623 10620 10617
10746 10743 10740 10737 10734 10731 10728 10726 10723 10720 10717 10714 10712 10709 10706 10704 10701 10698 10695 10692 10689 10685 10682 10678 10675 10671 10667 10664 10660 10657 10654 10650 10646 10643 10639 10635 10631 10627 10624 10621 10618 10614